Hourly Data Report for February 12, 2021

TORONTO CITY
ONTARIO
Current Station Operator: ECCC - MSC

43°40'00.000" N
79°24'00.000" W
112.50 m
6158355
71508
XTO

Download Data

Hourly Data (February 2021)
Hourly Data Report for February 12, 2021
TIME
LST
Temp Definition
°C
Dew Point Definition
°C
Rel Hum Definition
%
Precip. Amount Definition
mm

Wind Dir Definition
10's deg

Wind Spd Definition
km/h
Visibility Definition
km
Stn Press Definition
kPa
Hmdx Definition


Wind Chill Definition


Weather Definition


00:00 -9.5 -17.2 53 0.0       101.61     LegendNANA
01:00 -9.8 -17.9 52 0.0       101.63     LegendNANA
02:00 -10.1 -18.2 52 0.0       101.60     LegendNANA
03:00 -10.8 -19.1 50 0.0       101.58     LegendNANA
04:00 -11.4 -20.0 49 0.0       101.58     LegendNANA
05:00 -11.7 -20.3 49 0.0       101.62     LegendNANA
06:00 -12.2 -20.3 51 0.0       101.63     LegendNANA
07:00 -13.1 -17.0 73 0.1       101.65     LegendNANA
08:00 -13.2 -16.8 74 0.1       101.64     LegendNANA
09:00 -13.2 -17.4 70 0.1       101.64     LegendNANA
10:00 -12.6 -16.4 73 0.0       101.57     LegendNANA
11:00 -11.9 -16.1 71 0.1       101.53     LegendNANA
12:00 -11.1 -15.7 68 0.0       101.53     LegendNANA
13:00 -10.1 -14.8 68 0.0       101.46     LegendNANA
14:00 -9.2 -14.2 67 0.0       101.46     LegendNANA
15:00 -8.7 -13.6 68 0.0       101.36     LegendNANA
16:00 -8.5 -14.3 63 0.0       101.39     LegendNANA
17:00 -8.2 -15.2 57 0.0       101.42     LegendNANA
18:00 -8.4 -15.8 55 0.0       101.48     LegendNANA
19:00 -8.6 -17.0 51 0.0       101.53     LegendNANA
20:00 -9.4 -17.8 50 0.0       101.55     LegendNANA
21:00 -9.7 -18.7 48 0.0       101.59     LegendNANA
22:00 -10.0 -17.8 53 0.0       101.60     LegendNANA
23:00 -10.7 -19.7 48 0.0       101.62     LegendNANA

Notes on Data Quality.

Legend

  • E = Estimated
  • M = Missing
  • NA = Not Available*
  • [empty] = Indicates an unobserved value
Date modified: